EW5858 Weather Reports


time (UTC)temp
F
wind
direction
speed
knots
gust
knots
rain 1hr
in
rain 24hr
in
rain mn
in
humidity
%
barometer
mb
20260509135219 60 132 1.7 4.3 0.00 0.00 0.00 72 1003.6
20260509134719 60 132 1.7 4.3 0.00 0.00 0.00 74 1003.4
20260509134215 59 89 1.7 4.3 0.00 0.00 0.00 73 1003.4
20260509133716 59 79 1.7 5.2 0.00 0.00 0.00 75 1003.5
20260509133213 59 87 1.7 5.2 0.00 0.00 0.00 76 1003.5
20260509132714 58 141 1.7 5.2 0.00 0.00 0.00 76 1003.6
20260509132213 58 90 1.7 4.3 0.00 0.00 0.00 77 1003.7
20260509131713 58 121 1.7 4.3 0.00 0.00 0.00 77 1003.8
20260509131213 58 53 1.7 4.3 0.00 0.00 0.00 78 1003.7
20260509130945 57 11 1.7 4.3 0.00 0.00 0.00 78 1003.8
20260509130214 57 150 1.7 4.3 0.00 0.00 0.00 79 1003.8
20260509125710 57 131 1.7 4.3 0.00 0.00 0.00 79 1003.8
20260509125210 56 108 1.7 4.3 0.00 0.00 0.00 80 1003.7
20260509124707 56 106 2.6 5.2 0.00 0.00 0.00 80 1003.7
20260509124208 56 122 1.7 5.2 0.00 0.00 0.00 81 1003.7
20260509123706 56 141 1.7 4.3 0.00 0.00 0.00 81 1003.7
20260509123205 56 103 1.7 3.5 0.00 0.00 0.00 82 1003.8
20260509122705 55 26 1.7 3.5 0.00 0.00 0.00 82 1003.7
20260509122205 55 73 1.7 3.5 0.00 0.00 0.00 82 1003.8
20260509121705 55 104 0.9 3.5 0.00 0.00 0.00 82 1003.8
20260509121204 55 62 1.7 4.3 0.00 0.00 0.00 82 1003.7
20260509120704 55 94 1.7 4.3 0.00 0.00 0.00 83 1003.7
20260509120203 55 331 1.7 4.3 0.00 0.00 0.00 83 1003.7
20260509115934 55 93 0.9 3.5 0.00 0.00 0.00 84 1003.7
20260509115203 55 0 1.7 3.5 0.00 0.00 0.00 84 1003.7
20260509114701 54 104 1.7 3.5 0.00 0.00 0.00 84 1003.6
20260509114201 54 344 1.7 3.5 0.00 0.00 0.00 84 1003.5
20260509113702 54 68 1.7 3.5 0.00 0.00 0.00 84 1003.4
20260509113154 54 57 1.7 2.6 0.00 0.00 0.00 84 1003.4
20260509112654 54 102 1.7 2.6 0.00 0.00 0.00 84 1003.3
20260509112154 54 107 1.7 3.5 0.00 0.00 0.00 84 1003.3
20260509111654 54 96 0.9 4.3 0.00 0.00 0.00 84 1003.2
20260509111154 54 10 1.7 4.3 0.00 0.00 0.00 84 1003.3
20260509110926 54 49 0.9 2.6 0.00 0.00 0.00 84 1003.4
20260509110153 54 114 0.9 3.5 0.00 0.00 0.00 84 1003.4
20260509105654 54 92 0.9 3.5 0.00 0.00 0.00 84 1003.0
20260509105155 54 81 0.9 3.5 0.00 0.00 0.00 83 1003.0
20260509104656 54 345 1.7 3.5 0.00 0.00 0.00 84 1003.1
20260509104155 54 0 0.9 2.6 0.00 0.00 0.00 84 1003.0
20260509103654 54 91 0.9 2.6 0.00 0.00 0.00 84 1003.0
20260509103154 54 0 0.9 2.6 0.00 0.00 0.00 84 1003.0
20260509102651 54 20 0.9 2.6 0.00 0.00 0.00 84 1003.0
20260509102424 54 97 0.9 2.6 0.00 0.00 0.00 85 1003.0
20260509101652 54 70 0.9 2.6 0.00 0.00 0.00 85 1003.0
20260509101152 54 72 1.7 4.3 0.00 0.00 0.00 85 1003.0
20260509100921 54 111 1.7 4.3 0.00 0.00 0.00 86 1003.1
20260509100150 54 79 0.9 3.5 0.00 0.00 0.00 86 1003.1
20260509095914 54 47 0.9 3.5 0.00 0.00 0.00 86 1003.2
20260509095145 54 80 1.7 3.5 0.00 0.00 0.00 87 1003.3
20260509094644 54 75 1.7 3.5 0.00 0.00 0.00 87 1003.4
20260509094143 54 41 1.7 3.5 0.00 0.00 0.00 87 1003.5
20260509093641 54 116 1.7 3.5 0.00 0.00 0.00 87 1003.6
20260509093411 54 45 1.7 4.3 0.00 0.00 0.00 87 1003.8
20260509092646 54 90 1.7 4.3 0.00 0.00 0.00 87 1003.7
20260509092641 0 106 1.7 4.3 0.00 0.00 0.00
20260509091641 54 75 0.9 3.5 0.00 0.00 0.00 87 1003.7
20260509091141 54 102 0.9 3.5 0.00 0.00 0.00 87 1003.7
20260509090638 53 57 0.9 3.5 0.00 0.00 0.00 87 1003.7
20260509090138 54 60 0.9 4.3 0.00 0.00 0.00 87 1003.7
20260509085639 53 41 1.7 4.3 0.00 0.00 0.00 87 1003.8
20260509085138 53 94 1.7 2.6 0.00 0.00 0.00 87 1003.9
20260509084638 53 87 1.7 4.3 0.00 0.00 0.00 87 1003.9
20260509084138 54 31 1.7 4.3 0.00 0.00 0.00 87 1003.9
20260509083643 54 341 1.7 5.2 0.00 0.00 0.00 86 1003.8
20260509083139 54 18 1.7 5.2 0.00 0.00 0.00 86 1003.9
20260509082640 54 79 1.7 3.5 0.00 0.00 0.00 86 1003.9
20260509082136 54 60 0.9 3.5 0.00 0.00 0.00 86 1003.9
20260509081636 54 86 1.7 3.5 0.00 0.00 0.00 85 1003.8
20260509081140 54 92 1.7 3.5 0.00 0.00 0.00 85 1003.8
20260509081136 54 74 1.7 3.5 0.00 0.00 0.00 85 1003.8
20260509080136 54 93 1.7 3.5 0.00 0.00 0.00 85 1003.8
20260509075907 54 83 1.7 3.5 0.00 0.00 0.00 85 1003.8
20260509075136 54 87 1.7 3.5 0.00 0.00 0.00 84 1003.8
20260509074636 54 89 0.9 3.5 0.00 0.00 0.00 84 1003.9
20260509074407 54 164 0.9 3.5 0.00 0.00 0.00 84 1004.0
20260509073637 55 318 0.9 3.5 0.00 0.00 0.00 83 1004.0
20260509073134 55 76 1.7 3.5 0.00 0.00 0.00 83 1004.1
20260509072634 55 96 1.7 3.5 0.00 0.00 0.00 83 1004.1
20260509072403 55 25 1.7 3.5 0.00 0.00 0.00 82 1004.3
20260509071627 55 70 1.7 3.5 0.00 0.00 0.00 82 1004.3
20260509071122 55 76 1.7 2.6 0.00 0.00 0.00 82 1004.4
20260509070619 55 82 1.7 3.5 0.00 0.00 0.00 82 1004.5
20260509070120 55 81 1.7 3.5 0.00 0.00 0.00 82 1004.5
20260509065618 55 91 1.7 3.5 0.00 0.00 0.00 82 1004.6
20260509065349 55 87 1.7 3.5 0.00 0.00 0.00 82 1004.6
20260509064620 55 71 1.7 2.6 0.00 0.00 0.00 82 1004.7
20260509064121 55 81 0.9 2.6 0.00 0.00 0.00 82 1004.7
20260509063616 55 104 1.7 3.5 0.00 0.00 0.00 82 1004.8
20260509063114 56 100 1.7 3.5 0.00 0.00 0.00 82 1004.8
20260509062842 56 66 1.7 2.6 0.00 0.00 0.00 82 1004.8
20260509062716 56 105 1.7 3.5 0.00 0.00 0.00 82 1004.8
20260509061608 56 114 1.7 3.5 0.00 0.00 0.00 82 1004.9
20260509061335 56 52 1.7 3.5 0.00 0.00 0.00 82 1004.9
20260509060601 56 56 1.7 3.5 0.00 0.00 0.00 82 1005.0
20260509055600 56 0 1.7 3.5 0.00 0.00 0.00 81 1005.2
20260509055055 56 107 1.7 3.5 0.00 0.00 0.00 81 1005.1
20260509054827 56 57 1.7 3.5 0.00 0.00 0.00 81 1005.2
20260509054056 56 103 0.9 3.5 0.00 0.00 0.00 81 1005.2
20260509053556 56 52 1.7 3.5 0.00 0.00 0.00 80 1005.2
20260509053057 56 101 1.7 3.5 0.00 0.00 0.00 80 1005.2
20260509052553 56 75 0.9 3.5 0.00 0.00 0.00 80 1005.2
20260509052050 56 95 1.7 4.3 0.00 0.00 0.00 80 1005.2
20260509051551 56 56 1.7 4.3 0.00 0.00 0.00 79 1005.0
20260509051047 56 106 1.7 2.6 0.00 0.00 0.00 79 1004.9
20260509050547 56 94 1.7 4.3 0.00 0.00 0.00 79 1005.2
20260509050047 56 83 1.7 4.3 0.00 0.00 0.00 79 1005.2
20260509045818 56 53 0.9 2.6 0.00 0.00 0.00 78 1005.1
20260509045045 56 95 0.9 2.6 0.00 0.00 0.00 78 1005.0
20260509044544 55 35 0.9 2.6 0.00 0.00 0.00 78 1005.0
20260509044046 55 6 0.9 2.6 0.00 0.00 0.00 78 1005.2
20260509043545 55 97 0.9 2.6 0.00 0.00 0.00 78 1005.3
20260509043046 55 69 0.9 2.6 0.00 0.00 0.00 78 1005.3
20260509042545 55 78 0.9 2.6 0.00 0.00 0.00 77 1005.3
20260509042046 55 74 0.9 2.6 0.00 0.00 0.00 78 1005.2
20260509041545 55 90 0.9 2.6 0.00 0.00 0.00 78 1005.2
20260509041045 55 70 0.9 2.6 0.00 0.00 0.00 78 1005.2
20260509040545 54 101 0.9 2.6 0.00 0.00 0.00 78 1005.2
20260509040042 54 313 0.9 3.5 0.00 0.00 0.00 78 1005.2
20260509035542 53 353 0.9 3.5 0.00 0.00 0.00 79 1005.3
20260509035042 53 82 0.9 2.6 0.00 0.00 0.00 79 1005.3
20260509034813 52 103 0.9 1.7 0.00 0.00 0.00 80 1005.5
20260509034313 52 79 0.9 1.7 0.00 0.00 0.00 80 1005.6
20260509033543 51 0 0.0 1.7 0.00 0.00 0.00 80 1005.5
20260509033037 51 52 0.9 1.7 0.00 0.00 0.00 79 1005.5
20260509032809 51 90 0.9 1.7 0.00 0.00 0.00 80 1005.6
20260509032037 52 73 0.0 1.7 0.00 0.00 0.00 79 1005.5
20260509031537 52 73 0.9 1.7 0.00 0.00 0.00 79 1005.6
20260509031305 52 92 0.9 1.7 0.00 0.00 0.00 78 1005.6
20260509031139 52 80 0.9 1.7 0.00 0.00 0.00 78 1005.6
20260509030035 52 76 0.0 1.7 0.00 0.00 0.00 78 1005.6
20260509025534 52 104 0.0 1.7 0.00 0.00 0.00 78 1005.7
20260509025032 53 103 0.0 1.7 0.00 0.00 0.00 77 1005.7
20260509024532 53 119 0.0 1.7 0.00 0.00 0.00 76 1005.7
20260509024028 53 0 0.0 1.7 0.00 0.00 0.00 76 1005.7
20260509023525 53 0 0.0 1.7 0.00 0.00 0.00 76 1005.8
20260509023257 53 0 0.0 1.7 0.00 0.00 0.00 75 1005.9
20260509022527 53 27 0.0 1.7 0.00 0.00 0.00 75 1005.9
20260509022027 53 0 0.0 1.7 0.00 0.00 0.00 75 1006.0
20260509021758 53 0 0.0 2.6 0.00 0.00 0.00 75 1006.0
20260509021026 53 0 0.0 2.6 0.00 0.00 0.00 74 1006.0
20260509020526 53 80 0.0 1.7 0.00 0.00 0.00 74 1006.0
20260509020024 53 17 0.0 1.7 0.00 0.00 0.00 74 1006.0
20260509015523 53 5 0.0 1.7 0.00 0.00 0.00 73 1006.0
20260509015254 53 0 0.0 1.7 0.00 0.00 0.00 73 1006.0
20260509014520 53 1 0.9 2.6 0.00 0.00 0.00 72 1005.9
20260509014021 53 10 0.0 2.6 0.00 0.00 0.00 72 1005.9
20260509013521 53 0 0.0 2.6 0.00 0.00 0.00 70 1006.0
20260509013017 54 14 0.9 2.6 0.00 0.00 0.00 70 1006.0
20260509012518 54 77 0.9 1.7 0.00 0.00 0.00 69 1005.9
20260509012019 54 0 0.9 2.6 0.00 0.00 0.00 68 1005.9
20260509011518 54 0 0.9 2.6 0.00 0.00 0.00 67 1005.9
20260509011018 54 0 0.0 1.7 0.00 0.00 0.00 66 1005.9
20260509010517 54 7 0.0 1.7 0.00 0.00 0.00 65 1005.9
20260509010014 55 14 0.9 1.7 0.00 0.00 0.00 64 1005.9
20260509005513 55 43 0.9 1.7 0.00 0.00 0.00 63 1005.9
20260509005012 55 25 0.9 1.7 0.00 0.00 0.00 62 1005.9
20260509004512 55 0 0.9 1.7 0.00 0.00 0.00 61 1005.9
20260509004012 55 0 0.9 2.6 0.00 0.00 0.00 60 1005.9
20260509003510 56 66 0.9 2.6 0.00 0.00 0.00 59 1005.9
20260509003009 56 8 0.9 1.7 0.00 0.00 0.00 58 1006.0
20260509002507 56 357 0.9 1.7 0.00 0.00 0.00 58 1006.0
20260509002007 56 0 0.9 1.7 0.00 0.00 0.00 57 1006.1
20260509001508 56 0 0.9 2.6 0.00 0.00 0.00 57 1006.1
20260509001007 56 351 0.9 2.6 0.00 0.00 0.00 55 1006.1
20260509000507 56 34 0.9 1.7 0.00 0.00 0.00 54 1006.1
20260509000007 56 0 0.9 2.6 0.00 0.00 0.00 53 1006.1
20260508235506 57 0 0.9 2.6 0.00 0.00 0.00 54 1006.2
20260508235000 57 349 0.9 2.6 0.00 0.00 0.00 53 1006.2
20260508234502 58 312 0.9 2.6 0.00 0.00 0.00 52 1006.3
20260508234230 58 72 1.7 3.5 0.00 0.00 0.00 50 1006.3
20260508233458 59 297 0.9 3.5 0.00 0.00 0.00 48 1006.3
20260508232959 60 313 0.9 3.5 0.00 0.00 0.00 46 1006.3
20260508232456 61 318 0.9 3.5 0.00 0.00 0.00 45 1006.3
20260508231957 61 29 0.9 1.7 0.00 0.00 0.00 46 1006.3
20260508231453 60 344 0.9 1.7 0.00 0.00 0.00 47 1006.4
20260508230954 61 10 0.9 1.7 0.00 0.00 0.00 47 1006.4
20260508230453 60 348 0.9 3.5 0.00 0.00 0.00 47 1006.5
20260508225955 60 73 0.9 5.2 0.00 0.00 0.00 47 1006.4
20260508225452 60 20 0.9 5.2 0.00 0.00 0.00 47 1006.5
20260508225228 59 334 0.9 3.5 0.00 0.00 0.00 51 1006.5
20260508224449 59 353 0.9 3.5 0.00 0.00 0.00 50 1006.5
20260508223948 59 340 1.7 3.5 0.00 0.00 0.00 49 1006.4
20260508223448 59 35 1.7 4.3 0.00 0.00 0.00 46 1006.5
20260508223219 58 80 0.9 4.3 0.00 0.00 0.00 46 1006.5
20260508222448 58 31 0.9 3.5 0.00 0.00 0.00 49 1006.6
20260508221948 58 17 0.9 3.5 0.00 0.00 0.00 49 1006.6
20260508221448 58 75 0.9 2.6 0.00 0.00 0.00 48 1006.6
20260508220945 58 301 0.9 2.6 0.00 0.00 0.00 48 1006.6
20260508220716 58 57 0.9 3.5 0.00 0.00 0.00 46 1006.6
20260508215945 58 315 0.9 3.5 0.00 0.00 0.00 45 1006.7
20260508215443 58 285 0.9 3.5 0.00 0.00 0.00 45 1006.8
20260508214942 59 0 0.9 3.5 0.00 0.00 0.00 43 1006.8
20260508214439 59 138 1.7 5.2 0.00 0.00 0.00 44 1006.8
20260508213939 59 335 1.7 5.2 0.00 0.00 0.00 45 1006.8
20260508213710 59 46 1.7 5.2 0.00 0.00 0.00 46 1006.8
20260508212940 59 292 1.7 4.3 0.00 0.01 0.00 43 1006.8
20260508212437 59 351 1.7 5.2 0.00 0.03 0.00 43 1007.0
20260508211937 60 111 1.7 5.2 0.00 0.03 0.00 39 1007.0
20260508211707 60 0 1.7 5.2 0.00 0.04 0.00 42 1007.0
20260508211541 60 321 1.7 6.1 0.00 0.04 0.00 45 1006.9
20260508210709 61 313 1.7 6.1 0.00 0.05 0.00 44 1006.9
20260508205937 60 4 0.9 4.3 0.00 0.06 0.00 48 1006.9
20260508205437 60 334 0.9 4.3 0.00 0.07 0.00 44 1006.9
20260508204934 60 282 1.7 4.3 0.00 0.08 0.00 42 1007.0
20260508204707 61 328 1.7 4.3 0.00 0.08 0.00 42 1007.0
20260508203935 61 177 1.7 6.1 0.00 0.08 0.00 39 1007.1
20260508203434 61 302 1.7 6.1 0.00 0.08 0.00 42 1007.2
20260508202932 61 326 1.7 4.3 0.00 0.08 0.00 39 1007.2
20260508202708 62 274 1.7 4.3 0.00 0.08 0.00 38 1007.3
20260508201932 61 317 1.7 5.2 0.00 0.08 0.00 39 1007.4
20260508201432 61 50 1.7 5.2 0.00 0.08 0.00 38 1007.5
20260508200932 61 301 1.7 5.2 0.00 0.08 0.00 39 1007.6
20260508200433 61 15 1.7 5.2 0.00 0.08 0.00 39 1007.6
20260508195933 62 273 1.7 5.2 0.00 0.08 0.00 39 1007.7
20260508195432 62 276 1.7 5.2 0.00 0.08 0.00 40 1007.8
20260508195203 62 272 1.7 5.2 0.00 0.08 0.00 37 1007.9
20260508194432 62 289 1.7 4.3 0.00 0.08 0.00 37 1007.9
20260508193932 62 194 1.7 2.6 0.00 0.08 0.00 44 1008.0
20260508193432 62 5 1.7 3.5 0.00 0.08 0.00 40 1008.1
20260508193200 62 359 1.7 6.1 0.00 0.08 0.00 39 1008.1
20260508192429 62 359 1.7 6.1 0.00 0.08 0.00 38 1008.1
20260508191926 62 333 1.7 6.1 0.00 0.08 0.00 41 1008.1
20260508191426 61 301 1.7 3.5 0.00 0.08 0.00 38 1008.1
20260508190927 61 280 1.7 6.1 0.00 0.08 0.00 38 1008.2
20260508190426 61 279 1.7 6.1 0.00 0.08 0.00 36 1008.2
20260508185927 61 90 1.7 5.2 0.00 0.08 0.00 41 1008.4
20260508185427 61 10 1.7 5.2 0.00 0.08 0.00 39 1008.4
20260508184927 62 349 1.7 6.1 0.00 0.08 0.00 44 1008.6
20260508184425 62 323 1.7 6.1 0.00 0.08 0.00 45 1008.7
20260508183921 61 341 1.7 5.2 0.00 0.08 0.00 46 1008.7
20260508183421 61 298 1.7 5.2 0.00 0.08 0.00 46 1008.7
20260508182918 61 6 1.7 5.2 0.00 0.08 0.00 41 1008.8
20260508182647 61 240 1.7 5.2 0.00 0.08 0.00 40 1008.8
20260508181912 61 4 1.7 5.2 0.00 0.08 0.00 44 1008.9
20260508181413 61 31 1.7 4.3 0.00 0.08 0.00 42 1008.9
20260508180910 61 28 1.7 4.3 0.00 0.08 0.00 39 1008.9
20260508180409 61 353 1.7 4.3 0.00 0.08 0.00 41 1009.0
20260508175910 62 279 1.7 3.5 0.00 0.08 0.00 45 1009.0
20260508175410 61 321 1.7 3.5 0.00 0.08 0.00 44 1009.1
20260508174904 61 14 1.7 6.1 0.00 0.08 0.00 47 1009.2
20260508174404 61 42 1.7 6.1 0.00 0.08 0.00 46 1009.3
20260508173904 61 17 1.7 5.2 0.00 0.08 0.00 50 1009.4
20260508173404 61 295 1.7 5.2 0.00 0.08 0.00 47 1009.5
20260508172905 61 294 1.7 6.1 0.00 0.08 0.00 48 1009.6
20260508172401 61 353 1.7 6.1 0.00 0.08 0.00 46 1009.6
20260508171902 61 12 1.7 4.3 0.00 0.08 0.00 45 1009.7
20260508171359 61 351 0.9 4.3 0.00 0.08 0.00 45 1009.7
20260508170857 61 283 0.9 3.5 0.00 0.08 0.00 45 1009.9
20260508170627 61 58 0.9 5.2 0.00 0.08 0.00 50 1009.8
20260508165854 61 233 1.7 5.2 0.00 0.08 0.00 47 1009.8
20260508165354 61 306 1.7 4.3 0.00 0.08 0.00 44 1009.9
20260508165125 61 246 1.7 4.3 0.00 0.08 0.00 50 1010.1
20260508164625 61 298 1.7 6.1 0.00 0.08 0.00 50 1010.1
20260508163853 60 265 1.7 6.1 0.00 0.08 0.00 47 1010.2
20260508163350 60 7 1.7 6.1 0.00 0.08 0.00 48 1010.3
20260508162851 60 50 1.7 5.2 0.00 0.08 0.00 51 1010.4
20260508162351 60 252 1.7 4.3 0.00 0.08 0.00 50 1010.4
20260508161847 61 346 1.7 5.2 0.00 0.08 0.00 53 1010.4
20260508161348 61 338 0.9 5.2 0.00 0.08 0.00 49 1010.3
20260508160844 61 352 1.7 3.5 0.00 0.08 0.00 56 1010.4
20260508160615 60 325 1.7 3.5 0.00 0.08 0.00 53 1010.5
20260508155845 60 0 0.9 3.5 0.00 0.08 0.00 57 1010.5
20260508155341 60 323 0.9 2.6 0.00 0.08 0.00 60 1010.6
20260508154842 60 307 0.9 3.5 0.00 0.08 0.00 57 1010.6
20260508154339 60 299 0.9 3.5 0.00 0.08 0.00 59 1010.7
20260508153839 60 42 0.9 2.6 0.00 0.08 0.00 58 1010.7
20260508153340 59 355 0.9 3.5 0.00 0.08 0.00 58 1010.7
20260508152839 59 0 0.9 3.5 0.00 0.08 0.00 60 1010.7
20260508152334 59 328 0.9 2.6 0.00 0.08 0.00 59 1010.7
20260508152103 58 49 0.9 3.5 0.00 0.08 0.00 61 1010.9
20260508151330 58 284 0.9 3.5 0.00 0.08 0.00 59 1010.9
20260508150828 58 53 0.9 2.6 0.00 0.08 0.00 61 1010.9
20260508150559 57 0 0.9 2.6 0.00 0.08 0.00 62 1010.9
20260508145827 57 0 0.9 3.5 0.00 0.08 0.00 65 1010.9
20260508145324 56 59 0.9 3.5 0.00 0.08 0.00 64 1010.9
20260508144825 56 0 0.9 3.5 0.00 0.08 0.00 66 1011.1
20260508144557 56 308 0.9 3.5 0.00 0.08 0.00 66 1011.1
20260508143826 56 112 0.9 3.5 0.00 0.08 0.00 67 1011.2
20260508143320 55 0 0.9 3.5 0.00 0.08 0.00 66 1011.1
20260508142819 55 65 0.9 3.5 0.00 0.08 0.00 67 1011.1
20260508142319 55 38 0.9 3.5 0.00 0.08 0.00 68 1011.1
20260508142051 55 353 0.9 2.6 0.00 0.08 0.00 68 1011.1
20260508141316 54 337 0.9 2.6 0.00 0.08 0.00 68 1010.9
20260508141045 54 39 0.9 2.6 0.00 0.08 0.00 72 1010.8
20260508140313 53 24 0.9 2.6 0.00 0.08 0.00 72 1010.9
20260508135811 53 54 0.9 2.6 0.00 0.08 0.00 73 1010.8